sat.trackr.live / text

‹ back to catalog

STARLINK-5522

NORAD 56498 · 2023-064BC

PAYLOAD ACTIVE UNKNOWN

§ Identity

Operator
Country
US
Launch date
2023-05-10
Launch site
AFWTR
Launch vehicle
Mass (kg)
RCS (m²)

Purposes: comms

External: N2YO · Heavens-Above · Gunter

§ Orbital elements

Epoch: 2026-09-20T21:28:44.212224Z

Period
96.11 min
Inclination
69.9995°
Eccentricity
0.0003531
Mean motion
14.98330898 rev/d
Perigee alt
569.6 km
Apogee alt
574.5 km
Semi-major
6,950.2 km
B*
3.5142e-7
RAAN
332.2244°
Arg perigee
269.5507°
Mean anomaly
90.5247°
Rev number
18,547

§ Raw data

STARLINK-55221 56498U 23064BC  26263.89495616 -.00000089  00000+0  35142-6 0  99922 56498  69.9995 332.2244 0003531 269.5507  90.5247 14.98330898185472

JSON: /api/v1/satellites/56498 · /tle

For live sub-satellite position, see the globe view (requires WebGL).

§ Visibility from observer

Set your observer location to see the next 7 days of passes ≥ 10°. The values pass through the URL so the page stays shareable.

No JS? Fill the form by hand. The geolocation button needs JavaScript.